[[{"header":{"parameterUnit":"m.s-1","parameterCategory":1,"la1":30.2991,"la2":30.254,"lo1":-89.0895,"lo2":-89.0444,"dy":0.0017,"dx":0.0017,"nx":28,"ny":28,"refTime":"2025-04-25T03:00:00:Z","depth":0,"parameterNumber":2,"parameterNumberName":"U-component_of_WINDS"},"data":[0,0,0,0,0,0,0,0,0,0,0,0,0,0,0,0,0,0,0,0,0,0,0,0,0,0,0,0,0,0,0,0,0,0,0,0,0,0,0,0,0,0,0,0,0,0,0,0,0,0,0,0,0,0,0,0,0,0,-2.26,-2.2601,0,-2.2662,-2.2663,-2.2663,-2.2662,-2.2662,-2.2661,-2.266,-2.2725,-2.2727,-2.273,0,0,0,0,0,0,0,0,0,0,0,0,0,-2.2485,-2.2487,-2.26,-2.2601,-2.2602,-2.2662,-2.2663,-2.2664,-2.2663,-2.2662,-2.2661,-2.266,-2.2724,-2.2727,-2.273,0,0,0,0,0,0,0,0,0,0,0,0,0,-2.254,-2.2488,-2.26,-2.2609,-2.261,-2.2662,-2.2663,-2.2664,-2.2663,-2.2662,-2.266,-2.2659,-2.2723,-2.2726,-2.273,-2.2778,0,0,-2.2742,-2.2743,0,0,0,0,0,0,0,0,-2.2537,-2.2544,-2.2607,-2.2608,-2.261,-2.2653,-2.2646,-2.2702,-2.2663,-2.2643,-2.266,-2.2659,-2.2702,-2.2707,-2.2722,-2.2781,-2.2784,-2.2742,-2.2744,-2.2746,-2.2747,0,0,0,0,0,0,0,-2.2533,-2.2541,-2.2625,-2.2608,-2.2609,-2.261,-2.2617,-2.2656,-2.2679,-2.2644,-2.2645,-2.2652,-2.2703,-2.2718,-2.2723,-2.2785,-2.2742,-2.2745,-2.2747,-2.2749,-2.2889,-2.289,0,0,0,0,0,0,-2.2527,-2.2538,-2.2623,-2.2627,-2.2569,-2.2613,-2.2621,-2.2641,-2.2678,-2.2683,-2.2653,-2.2652,-2.2712,-2.2719,-2.2725,-2.2785,-2.2746,-2.2749,-2.2751,-2.2887,-2.2889,-2.2891,0,0,0,0,0,0,-2.2524,-2.2534,-2.262,-2.2583,-2.2593,-2.2617,-2.2639,-2.2642,-2.2658,-2.2684,-2.2689,-2.2664,-2.2712,-2.272,-2.2765,-2.2787,-2.2751,-2.2754,-2.2886,-2.2888,-2.289,-2.2903,0,0,0,0,0,0,-2.2521,-2.2534,-2.2551,-2.2583,-2.2595,-2.2658,-2.2641,-2.2645,-2.2664,-2.2663,-2.2696,-2.2701,-2.2711,-2.276,-2.2769,-2.2791,-2.2757,-2.2884,-2.2887,-2.2889,-2.2901,-2.2905,-2.2909,0,0,0,0,0,-2.2517,-2.2552,-2.2552,-2.2562,-2.2618,-2.2659,-2.2667,-2.2677,-2.2666,-2.2684,-2.2702,-2.27,-2.2784,-2.2764,-2.2775,-2.2798,-2.2883,-2.2886,-2.2889,-2.2899,-2.2904,-2.2909,0,0,0,0,0,0,-2.2522,-2.2556,-2.2556,-2.2603,-2.2628,-2.2659,-2.2682,-2.2683,-2.2712,-2.271,-2.2724,-2.2731,-2.2776,-2.2792,-2.277,-2.2848,-2.2832,-2.2837,-2.2835,-2.2841,-2.2845,-2.284,-2.276,0,0,0,0,0,-2.2528,-2.2559,-2.2587,-2.2626,-2.2638,-2.2658,-2.2677,-2.2683,-2.271,-2.2721,-2.2742,-2.2769,-2.2802,-2.2822,-2.2854,-2.2904,-2.2912,-2.2926,-2.293,-2.2933,-2.2937,-2.2966,-2.2973,-2.2902,-2.2902,-2.2902,0,0,-2.2542,-2.2565,-2.2583,-2.2627,-2.2647,-2.2679,-2.2667,-2.2701,-2.2725,-2.2726,-2.277,-2.2787,-2.2818,-2.2866,-2.2888,-2.2881,-2.2959,-2.2938,-2.294,-2.2942,-2.297,-2.2977,-2.2983,-2.2904,-2.2904,-2.2903,0,0,-2.2582,-2.2603,-2.2637,-2.2658,-2.2689,-2.2703,-2.2711,-2.2743,-2.2754,-2.2798,-2.28,-2.283,-2.2886,-2.2908,-2.2927,-2.298,-2.2979,-2.299,-2.3011,-2.3039,-2.3045,-2.305,-2.3069,-2.3075,-2.2994,-2.2994,-2.2994,0,-2.2595,-2.2642,-2.2654,-2.2689,-2.2709,-2.2713,-2.2748,-2.2768,-2.2809,-2.2823,-2.2814,-2.2885,-2.2907,-2.296,-2.2973,-2.2989,-2.2999,-2.2985,-2.3043,-2.3048,-2.3053,-2.3071,-2.3078,-2.2995,-2.2995,-2.2995,-2.2995,0,-2.2657,-2.269,-2.2714,-2.2753,-2.2776,-2.2811,-2.2829,-2.2852,-2.2858,-2.2872,-2.2919,-2.2945,-2.2982,-2.2996,-2.3001,-2.3051,-2.3046,-2.304,-2.3024,-2.3061,-2.3078,-2.3085,-2.2997,-2.2996,-2.2996,-2.2996,0,0,-2.2699,-2.2746,-2.2754,-2.2773,-2.2809,-2.2835,-2.2872,-2.2908,-2.2927,-2.2956,-2.2987,-2.3036,-2.3031,-2.3053,-2.3062,-2.3086,-2.3127,-2.3078,-2.3079,-2.3086,-2.3184,-2.3187,-2.3194,-2.3128,-2.3129,-2.313,-2.3181,0,-2.2743,-2.2806,-2.2819,-2.2874,-2.2905,-2.2911,-2.2943,-2.2969,-2.2985,-2.3015,-2.3033,-2.3067,-2.3059,-2.3072,-2.3097,-2.3116,-2.3147,-2.3113,-2.3157,-2.3158,-2.3147,-2.3203,-2.3206,-2.3253,-2.3188,-2.3189,-2.319,0,-2.2801,-2.2832,-2.2889,-2.2923,-2.2937,-2.2965,-2.3,-2.3029,-2.306,-2.307,-2.3095,-2.3102,-2.3142,-2.3125,-2.318,-2.3157,-2.3177,-2.319,-2.3192,-2.3195,-2.3175,-2.3207,-2.3268,-2.3274,-2.3201,-2.32,-2.3199,0,-2.2826,-2.2881,-2.2923,-2.2939,-2.298,-2.2999,-2.3017,-2.3047,-2.3069,-2.3101,-2.3116,-2.3152,-2.3171,-2.32,-2.3217,-2.3204,-2.3271,-2.3256,-2.3281,-2.3281,-2.3293,-2.3292,-2.3356,-2.3308,-2.3308,-2.3308,-2.3308,0,-2.2873,-2.2908,-2.2935,-2.296,-2.3001,-2.3017,-2.3057,-2.3075,-2.3103,-2.3133,-2.3141,-2.3169,-2.3191,-2.3223,-2.3237,-2.3281,-2.329,-2.33,-2.3303,-2.3298,-2.3297,-2.331,-2.3306,-2.331,-2.3309,-2.3309,-2.3308,0,-2.2906,-2.2925,-2.2971,-2.3007,-2.3017,-2.3045,-2.3076,-2.3102,-2.3119,-2.3157,-2.3167,-2.3195,-2.3233,-2.3254,-2.3302,-2.3312,-2.336,-2.3362,-2.3349,-2.335,-2.3374,-2.3371,-2.3448,-2.3459,-2.3404,-2.3405,-2.3405,0,-2.2933,-2.296,-2.2999,-2.302,-2.3038,-2.3071,-2.3094,-2.3112,-2.3136,-2.3175,-2.3196,-2.3235,-2.3267,-2.3329,-2.3353,-2.3391,-2.3393,-2.3418,-2.3398,-2.3393,-2.3393,-2.339,-2.3393,-2.342,-2.3421,-2.3421,-2.3421,0,-2.298,-2.2989,-2.302,-2.3056,-2.3083,-2.3112,-2.3141,-2.3158,-2.3182,-2.3208,-2.3247,-2.3272,-2.3322,-2.3361,-2.3401,-2.3421,-2.3425,-2.3428,-2.3435,-2.343,-2.3421,-2.3426,-2.3357,-2.3425,-2.3425,-2.3424,-2.3424,-2.3424,-2.3011,-2.3035,-2.3067,-2.3102,-2.3127,-2.3154,-2.318,-2.3201,-2.3234,-2.3275,-2.3285,-2.3327,-2.336,-2.3414,-2.3436,-2.3469,-2.3465,-2.3476,-2.3478,-2.348,-2.3481,-2.3417,-2.3477,-2.3477,-2.3477,-2.3477,-2.3477,0,-2.3057,-2.3078,-2.3111,-2.3152,-2.318,-2.3183,-2.3216,-2.3239,-2.3276,-2.3306,-2.3338,-2.3384,-2.3422,-2.3451,-2.3491,-2.3512,-2.3515,-2.3522,-2.352,-2.3524,-2.3483,-2.3472,-2.3519,-2.3519,-2.3519,-2.3519,-2.3519,-2.3519,-2.3085,-2.3127,-2.314,-2.3195,-2.3217,-2.3257,-2.3276,-2.3302,-2.3326,-2.3377,-2.3409,-2.3427,-2.3457,-2.35,-2.3536,-2.3543,-2.3557,-2.3563,-2.3571,-2.3532,-2.3527,-2.3523,-2.3512,-2.3567,-2.3567,-2.3609,-2.361,-2.361]},{"header":{"parameterUnit":"m.s-1","parameterCategory":1,"la1":30.2991,"la2":30.254,"lo1":-89.0895,"lo2":-89.0444,"dy":0.0017,"dx":0.0017,"nx":28,"ny":28,"refTime":"2025-04-25T03:00:00:Z","depth":0,"parameterNumber":3,"parameterNumberName":"V-component_of_WINDS"},"data":[0,0,0,0,0,0,0,0,0,0,0,0,0,0,0,0,0,0,0,0,0,0,0,0,0,0,0,0,0,0,0,0,0,0,0,0,0,0,0,0,0,0,0,0,0,0,0,0,0,0,0,0,0,0,0,0,0,0,3.2807,3.2807,0,3.2811,3.2811,3.2812,3.2849,3.285,3.2851,3.2852,3.2851,3.285,3.2849,0,0,0,0,0,0,0,0,0,0,0,0,0,3.2828,3.2828,3.2807,3.2807,3.2807,3.2811,3.2811,3.2812,3.2849,3.285,3.2852,3.2853,3.2851,3.285,3.2849,0,0,0,0,0,0,0,0,0,0,0,0,0,3.2824,3.2828,3.2807,3.2827,3.2829,3.2811,3.2811,3.2812,3.2849,3.285,3.2852,3.2853,3.2852,3.285,3.2849,3.2812,0,0,3.2845,3.2844,0,0,0,0,0,0,0,0,3.2825,3.2824,3.2824,3.2825,3.2827,3.2832,3.2819,3.2811,3.2849,3.2841,3.2852,3.2854,3.2843,3.2843,3.284,3.2812,3.2812,3.2845,3.2844,3.2843,3.2843,0,0,0,0,0,0,0,3.2825,3.2824,3.2809,3.2824,3.2826,3.2834,3.2835,3.2817,3.2834,3.2842,3.2845,3.2845,3.2844,3.2841,3.284,3.2812,3.2845,3.2844,3.2843,3.2842,3.2755,3.2754,0,0,0,0,0,0,3.2823,3.2824,3.2809,3.2809,3.283,3.2833,3.2834,3.2829,3.2834,3.2836,3.2844,3.2847,3.2843,3.2842,3.284,3.2799,3.2843,3.2842,3.2841,3.2757,3.2755,3.2753,0,0,0,0,0,0,3.2823,3.2821,3.2808,3.2817,3.2816,3.2831,3.2825,3.2828,3.2825,3.2836,3.2838,3.2838,3.2844,3.2842,3.282,3.2799,3.2841,3.284,3.2759,3.2756,3.2754,3.2714,0,0,0,0,0,0,3.2824,3.2821,3.2808,3.2817,3.2816,3.2788,3.2823,3.2827,3.2823,3.2827,3.2831,3.2833,3.2845,3.2821,3.2818,3.2798,3.2839,3.276,3.2758,3.2755,3.2717,3.271,3.2705,0,0,0,0,0,3.2824,3.2794,3.2807,3.2805,3.2799,3.2787,3.2786,3.2803,3.2821,3.2808,3.2815,3.2833,3.2802,3.2819,3.2815,3.2794,3.2762,3.2758,3.2755,3.272,3.2712,3.2705,0,0,0,0,0,0,3.278,3.2796,3.281,3.2782,3.2783,3.2794,3.2777,3.2793,3.2788,3.2791,3.281,3.2811,3.2785,3.2787,3.2806,3.276,3.2785,3.2781,3.2759,3.2752,3.2746,3.2746,3.2838,0,0,0,0,0,3.2768,3.2758,3.2772,3.2746,3.2746,3.2761,3.2756,3.2769,3.2771,3.2771,3.2776,3.2775,3.2766,3.2759,3.275,3.2718,3.272,3.2702,3.2696,3.2691,3.2687,3.2671,3.2664,3.2743,3.2743,3.2743,0,0,3.2741,3.2748,3.274,3.2737,3.274,3.2729,3.2761,3.2747,3.2739,3.2768,3.2748,3.2752,3.2752,3.2725,3.2713,3.2726,3.2666,3.2687,3.2682,3.2681,3.2667,3.266,3.2653,3.274,3.2741,3.2741,0,0,3.2686,3.2691,3.2671,3.2674,3.2678,3.2689,3.2684,3.2693,3.2697,3.2678,3.27,3.269,3.2672,3.2673,3.267,3.2619,3.2636,3.2616,3.2584,3.2569,3.2563,3.2557,3.254,3.2533,3.2612,3.2612,3.2612,0,3.2652,3.2638,3.2658,3.2644,3.2642,3.2671,3.2651,3.2652,3.2652,3.265,3.2665,3.2646,3.2647,3.2622,3.261,3.2606,3.2602,3.2615,3.2562,3.2557,3.2552,3.2536,3.2529,3.2609,3.261,3.261,3.261,0,3.2596,3.2585,3.2568,3.2572,3.2568,3.255,3.2568,3.2561,3.2575,3.2584,3.2565,3.2569,3.2563,3.2558,3.2569,3.2534,3.2542,3.2559,3.2585,3.2542,3.2527,3.2521,3.2606,3.2607,3.2608,3.2608,0,0,3.2512,3.2529,3.2522,3.2525,3.2533,3.2525,3.2509,3.2506,3.2501,3.25,3.2488,3.2474,3.2491,3.2488,3.2501,3.2487,3.2448,3.2506,3.2507,3.2496,3.2411,3.2398,3.2391,3.246,3.2458,3.2458,3.2411,0,3.2461,3.2437,3.2456,3.2428,3.242,3.2448,3.2434,3.2437,3.2446,3.2439,3.2447,3.2438,3.246,3.246,3.2448,3.2456,3.2431,3.2459,3.2448,3.2447,3.2447,3.2383,3.2369,3.2325,3.2405,3.2404,3.2404,0,3.2398,3.2398,3.237,3.2383,3.2379,3.2367,3.2367,3.236,3.2364,3.2371,3.237,3.2387,3.2372,3.2398,3.2378,3.2396,3.2393,3.2396,3.2395,3.2394,3.2423,3.2381,3.2311,3.2304,3.2394,3.2395,3.2396,0,3.2341,3.2334,3.2317,3.2318,3.2332,3.2323,3.2328,3.2334,3.2331,3.233,3.2329,3.2325,3.2323,3.232,3.2335,3.2352,3.2313,3.234,3.2319,3.2318,3.2309,3.2309,3.2238,3.2306,3.2306,3.2306,3.2306,0,3.2283,3.2264,3.2293,3.2282,3.2263,3.2285,3.2265,3.2273,3.2278,3.2269,3.2292,3.2283,3.2304,3.2297,3.2308,3.2291,3.2289,3.2294,3.2298,3.2292,3.2292,3.229,3.2294,3.2304,3.2305,3.2305,3.2305,0,3.2216,3.2234,3.2218,3.2233,3.2237,3.2222,3.2234,3.2225,3.2236,3.2225,3.2223,3.224,3.2233,3.2248,3.2242,3.225,3.2226,3.2233,3.2225,3.2227,3.2206,3.2208,3.2131,3.2122,3.2195,3.2194,3.2194,0,3.2178,3.2165,3.218,3.2177,3.2182,3.2175,3.2174,3.2195,3.2192,3.2198,3.2188,3.2184,3.2181,3.2169,3.2179,3.2176,3.2184,3.2157,3.2183,3.2179,3.2185,3.2185,3.2185,3.2152,3.2151,3.215,3.2149,0,3.2108,3.2118,3.2116,3.2118,3.2116,3.2117,3.212,3.2116,3.2139,3.2134,3.2129,3.2127,3.2123,3.2119,3.2118,3.2122,3.2139,3.2142,3.2137,3.2131,3.2127,3.213,3.2211,3.2143,3.2144,3.2144,3.2144,3.2145,3.2055,3.2046,3.2056,3.2053,3.2059,3.2061,3.2054,3.2066,3.2062,3.2062,3.2074,3.2067,3.2073,3.2074,3.2076,3.207,3.2082,3.2074,3.2073,3.2071,3.2068,3.2128,3.207,3.207,3.207,3.207,3.2071,0,3.1988,3.1996,3.1994,3.1999,3.1997,3.2016,3.2021,3.2017,3.2011,3.2016,3.2014,3.2009,3.2005,3.2016,3.2014,3.2007,3.2015,3.2006,3.2007,3.2007,3.2057,3.2062,3.1999,3.1999,3.1999,3.1999,3.1999,3.1999,3.1953,3.1939,3.1951,3.194,3.1948,3.1943,3.1944,3.1947,3.1951,3.1945,3.1943,3.1951,3.1959,3.1958,3.1955,3.1959,3.1957,3.1945,3.1951,3.1997,3.2004,3.201,3.2015,3.1944,3.1944,3.1903,3.1902,3.1902]}]]